Time,TemperatureF,DewpointF,PressureIn,WindDirection,WindDirectionDegrees,WindSpeedMPH,WindSpeedGustMPH,Humidity,HourlyPrecipIn,Conditions,Clouds,dailyrainin,SoftwareType,DateUTC
2013-08-28 10:14:00,64.0,64.0,29.87,West,261,0.0,0.0,100,0.00,,,0.32,,2013-08-28 17:14:00,
2013-08-28 10:24:00,64.0,64.0,29.87,West,261,0.0,0.0,100,0.00,,,0.32,,2013-08-28 17:24:00,
2013-08-28 10:52:00,65.0,65.0,29.88,West,262,0.0,2.0,100,0.00,,,0.32,,2013-08-28 17:52:00,
2013-08-28 11:12:00,66.0,66.0,29.88,West,262,0.0,1.0,100,0.00,,,0.32,,2013-08-28 18:12:00,
2013-08-28 11:21:00,66.0,66.0,29.88,SSW,200,0.0,3.0,100,0.00,,,0.32,,2013-08-28 18:21:00,
2013-08-28 11:42:00,66.0,66.0,29.88,SSW,198,0.0,4.0,100,0.00,,,0.32,,2013-08-28 18:42:00,
2013-08-28 11:53:00,67.0,66.0,29.88,SSW,198,1.0,3.0,98,0.00,,,0.32,,2013-08-28 18:53:00,
2013-08-28 12:12:00,68.0,66.0,29.88,WSW,240,0.0,3.0,94,0.00,,,0.32,,2013-08-28 19:12:00,
2013-08-28 12:21:00,69.0,66.0,29.88,WSW,240,0.0,3.0,90,0.00,,,0.32,,2013-08-28 19:21:00,
2013-08-28 12:42:00,69.0,65.0,29.89,WSW,246,0.0,3.0,86,0.00,,,0.32,,2013-08-28 19:42:00,
2013-08-28 12:52:00,70.0,65.0,29.88,WNW,285,0.0,2.0,85,0.00,,,0.32,,2013-08-28 19:52:00,
2013-08-28 13:12:00,71.0,66.0,29.88,SW,221,1.0,3.0,83,0.00,,,0.32,,2013-08-28 20:12:00,
2013-08-28 13:22:00,71.0,65.0,29.88,WSW,245,0.0,2.0,82,0.00,,,0.32,,2013-08-28 20:22:00,
2013-08-28 13:43:00,72.0,66.0,29.89,WSW,252,1.0,4.0,82,0.00,,,0.32,,2013-08-28 20:43:00,
2013-08-28 13:52:00,72.0,65.0,29.88,WSW,240,1.0,4.0,79,0.00,,,0.32,,2013-08-28 20:52:00,
2013-08-28 14:11:00,72.0,64.0,29.88,WNW,290,0.0,3.0,77,0.00,,,0.32,,2013-08-28 21:11:00,
2013-08-28 14:22:00,73.0,65.0,29.89,West,275,0.0,4.0,76,0.00,,,0.32,,2013-08-28 21:22:00,
2013-08-28 14:57:00,74.0,64.0,29.88,SW,233,1.0,4.0,71,0.00,,,0.32,,2013-08-28 21:57:00,
2013-08-28 15:15:00,74.0,64.0,29.87,SSW,206,1.0,3.0,72,0.00,,,0.32,,2013-08-28 22:15:00,
2013-08-28 15:25:00,75.0,65.0,29.87,West,264,0.0,4.0,72,0.00,,,0.32,,2013-08-28 22:25:00,
2013-08-28 15:43:00,75.0,65.0,29.87,SW,236,1.0,4.0,70,0.00,,,0.32,,2013-08-28 22:43:00,
2013-08-28 15:54:00,76.0,65.0,29.86,WSW,257,0.0,4.0,70,0.00,,,0.32,,2013-08-28 22:54:00,
2013-08-28 16:13:00,76.0,65.0,29.87,West,279,2.0,5.0,68,0.00,,,0.32,,2013-08-28 23:13:00,
2013-08-28 16:22:00,76.0,64.0,29.86,SW,233,2.0,6.0,67,0.00,,,0.32,,2013-08-28 23:22:00,
2013-08-28 16:42:00,77.0,65.0,29.86,West,263,1.0,4.0,66,0.00,,,0.32,,2013-08-28 23:42:00,
2013-08-28 16:53:00,76.0,64.0,29.86,West,280,0.0,5.0,67,0.00,,,0.32,,2013-08-28 23:53:00,
2013-08-28 17:11:00,77.0,65.0,29.86,WNW,290,1.0,3.0,66,0.00,,,0.32,,2013-08-29 00:11:00,
2013-08-28 18:12:00,77.0,64.0,29.86,West,261,0.0,3.0,65,0.00,,,0.32,,2013-08-29 01:12:00,
2013-08-28 18:22:00,77.0,64.0,29.86,SSW,192,1.0,3.0,65,0.00,,,0.32,,2013-08-29 01:22:00,
2013-08-28 18:42:00,77.0,65.0,29.86,SSW,209,0.0,3.0,66,0.00,,,0.32,,2013-08-29 01:42:00,
2013-08-28 18:52:00,77.0,64.0,29.85,SSW,209,0.0,2.0,65,0.00,,,0.32,,2013-08-29 01:52:00,
2013-08-28 19:11:00,77.0,64.0,29.86,SSW,209,0.0,1.0,65,0.00,,,0.32,,2013-08-29 02:11:00,
2013-08-28 19:22:00,76.0,63.0,29.85,SSW,209,0.0,1.0,65,0.00,,,0.32,,2013-08-29 02:22:00,
2013-08-28 20:11:00,75.0,65.0,29.85,SSW,209,0.0,0.0,71,0.00,,,0.32,,2013-08-29 03:11:00,
2013-08-28 20:22:00,74.0,65.0,29.85,SSW,209,0.0,0.0,73,0.00,,,0.32,,2013-08-29 03:22:00,
2013-08-28 20:45:00,73.0,65.0,29.86,SSW,209,0.0,0.0,75,0.00,,,0.32,,2013-08-29 03:45:00,
2013-08-28 20:57:00,73.0,65.0,29.86,SSW,209,0.0,0.0,76,0.00,,,0.32,,2013-08-29 03:57:00,
2013-08-28 21:17:00,72.0,64.0,29.87,SSW,209,0.0,0.0,77,0.00,,,0.32,,2013-08-29 04:17:00,
2013-08-28 21:28:00,71.0,64.0,29.88,SSW,209,0.0,0.0,79,0.00,,,0.32,,2013-08-29 04:28:00,
2013-08-28 21:45:00,71.0,65.0,29.88,SSW,209,0.0,0.0,81,0.00,,,0.23,,2013-08-29 04:45:00,
2013-08-28 21:54:00,70.0,64.0,29.88,SSW,209,0.0,0.0,82,0.00,,,0.23,,2013-08-29 04:54:00,
2013-08-28 22:14:00,70.0,65.0,29.88,SSW,209,0.0,0.0,84,0.00,,,0.23,,2013-08-29 05:14:00,
2013-08-28 22:23:00,69.0,64.0,29.88,SSW,209,0.0,0.0,84,0.00,,,0.23,,2013-08-29 05:23:00,
2013-08-28 22:42:00,69.0,64.0,29.87,SSW,209,0.0,0.0,85,0.00,,,0.23,,2013-08-29 05:42:00,
2013-08-28 22:52:00,69.0,65.0,29.87,SSW,209,0.0,0.0,86,0.00,,,0.23,,2013-08-29 05:52:00,
2013-08-28 23:12:00,68.0,64.0,29.88,SSW,209,0.0,0.0,87,0.00,,,0.23,,2013-08-29 06:12:00,
2013-08-28 23:21:00,68.0,64.0,29.88,SSW,209,0.0,0.0,88,0.00,,,0.23,,2013-08-29 06:21:00,
2013-08-28 23:43:00,68.0,65.0,29.88,SSW,209,0.0,0.0,89,0.00,,,0.23,,2013-08-29 06:43:00,
2013-08-28 23:52:00,67.0,64.0,29.89,SSW,209,0.0,0.0,90,0.00,,,0.23,,2013-08-29 06:52:00,